Location: Newark
(46.7636°N, 1.8358°W)
Time: 20:51:30
(UTC+00:00)

Vanguard 2 Rocket - Pass Details

Date: 22 October 2019
Orbit: 554 x 3326 km, 32.9° (Epoch: 15 November)

Event Time Altitude Azimuth Distance (km) Brightness Sun altitude
Rises 14:58:47 0° 277° (W) 7,310 12.1 18.7°
Reaches altitude 10° 15:05:17 10° 267° (W) 6,159 12.1 17.8°
Maximum altitude 15:18:20 24° 223° (SW) 4,407 12.6 16.1°
Drops below altitude 10° 15:28:24 10° 176° (S) 4,626 11.0 14.7°
Sets 15:32:24 0° 163° (SSE) 5,203 11.0 14.1°
